{"data":{"norad_id":67921,"intl_designator":"2026-036T","name":"STARLINK-36405","alt_names":[],"object_type":"PAYLOAD","status":"ACTIVE","operator":null,"country":"US","launch_date":"2026-02-22","launch_site_code":"AFETR","launch_vehicle":null,"mission":null,"orbit_class":"UNKNOWN","rcs_meters":null,"size_class":null,"mass_kg":null,"dimensions":null,"purposes":["comms"],"wikipedia_slug":null,"has_3d_model":false,"image_url":null,"decayed_at":null,"tle_current":{"epoch":"2026-05-25T02:13:33.259584Z","epoch_age_seconds":70311,"freshness":"FRESH","line1":"1 67921U 26036T   26145.09274606  .00019949  00000+0  73222-3 0  9994","line2":"2 67921  43.0002 174.0775 0001198 272.5985  87.4729 15.27592802 15402","mean_motion":15.27592802,"eccentricity":0.0001198,"inclination_deg":43.0002,"raan_deg":174.0775,"arg_perigee_deg":272.5985,"mean_anomaly_deg":87.4729,"bstar":0.00073222,"rev_number":1540,"period_min":94.265958710638,"perigee_km":482.18879701192,"apogee_km":483.83272801582,"semimajor_km":6861.1477625139,"source":"CELESTRAK","updated_at":"2026-05-25T13:38:21.741248Z"}}}